Location: Killam
(52.7910°N, 111.8608°W)
Time: 21:37:38
(UTC+00:00)

A-11 Canister half - Pass Details

Date: 25 February 2026
Orbit: 1525 x 1683 km, 47.3° (Epoch: 5 March)

Event Time Altitude Azimuth Distance (km) Brightness Sun altitude
Rises 04:59:11 0° 285° (WNW) 4,682 12.4 -35.5°
Reaches altitude 10° 05:03:05 10° 271° (W) 3,694 11.5 -36.0°
Maximum altitude 05:09:36 22° 226° (SW) 2,866 10.4 -36.7°
Enters shadow 05:10:46 21° 216° (SW) 2,898 10.3 -36.9°
Drops below altitude 10° 05:16:10 10° 180° (S) 3,713 - -37.5°
Sets 05:20:08 0° 167° (SSE) 4,713 - -37.9°
